• Em Portugal
  • Lista de países
  • Para 7 dias
  • Temperatura da água
  • Mapas de satélite
  • Mapa do tempo
  • Widgets de tempo
  • user-avatar
    Iniciar Sessão

    Previsão horária em Fontvieille

    Hoje, 22 Setembro, Sábado

    Tempo Temperatura Precipitação Vento Pressão Humidade
    00:00 +24°C° 0 mm 2 m/s 756 mmHg 67%
    01:00 +24°C° 0 mm 2 m/s 756 mmHg 67%
    02:00 +24°C° 0 mm 3 m/s 756 mmHg 66%
    03:00 +24°C° 0 mm 3 m/s 755 mmHg 66%
    04:00 +24°C° 0 mm 3 m/s 755 mmHg 65%
    05:00 +24°C° 0 mm 3 m/s 756 mmHg 64%
    06:00 +24°C° 0 mm 3 m/s 756 mmHg 64%
    07:00 +26°C° 0 mm 3 m/s 756 mmHg 58%
    08:00 +29°C° 0 mm 2 m/s 756 mmHg 52%
    09:00 +31°C° 0 mm 2 m/s 756 mmHg 47%
    10:00 +31°C° 0 mm 2 m/s 756 mmHg 48%
    11:00 +33°C° 0 mm 3 m/s 757 mmHg 49%
    12:00 +33°C° 0 mm 3 m/s 757 mmHg 50%
    13:00 +31°C° 0 mm 3 m/s 757 mmHg 52%
    14:00 +31°C° 0 mm 3 m/s 756 mmHg 54%
    15:00 +31°C° 0 mm 3 m/s 756 mmHg 56%
    16:00 +29°C° 0 mm 3 m/s 757 mmHg 65%
    17:00 +27°C° 0 mm 2 m/s 757 mmHg 75%
    18:00 +25°C° 0 mm 2 m/s 757 mmHg 84%
    19:00 +25°C° 0 mm 2 m/s 757 mmHg 83%
    20:00 +25°C° 0 mm 2 m/s 758 mmHg 83%
    21:00 +24°C° 0 mm 2 m/s 758 mmHg 82%
    22:00 +24°C° 0 mm 2 m/s 758 mmHg 81%
    23:00 +24°C° 0 mm 2 m/s 758 mmHg 79%

    Amanhã, 23 Setembro, Domingo

    Tempo Temperatura Precipitação Vento Pressão Humidade
    00:00 +24°C° 0 mm 2 m/s 758 mmHg 78%
    01:00 +24°C° 0 mm 2 m/s 758 mmHg 76%
    02:00 +24°C° 0 mm 2 m/s 758 mmHg 74%
    03:00 +24°C° 0 mm 2 m/s 758 mmHg 73%
    04:00 +24°C° 0 mm 2 m/s 758 mmHg 72%
    05:00 +24°C° 0 mm 2 m/s 758 mmHg 71%
    06:00 +24°C° 0 mm 2 m/s 758 mmHg 70%
    07:00 +26°C° 0 mm 2 m/s 758 mmHg 65%
    08:00 +28°C° 0 mm 2 m/s 759 mmHg 61%
    09:00 +30°C° 0 mm 2 m/s 759 mmHg 56%
    10:00 +31°C° 0 mm 2 m/s 759 mmHg 56%
    11:00 +31°C° 0 mm 2 m/s 758 mmHg 55%
    12:00 +32°C° 0 mm 2 m/s 758 mmHg 55%
    13:00 +32°C° 0 mm 2 m/s 758 mmHg 56%
    14:00 +31°C° 0 mm 2 m/s 757 mmHg 57%
    15:00 +31°C° 0 mm 3 m/s 757 mmHg 58%
    16:00 +29°C° 0 mm 2 m/s 757 mmHg 66%
    17:00 +27°C° 0 mm 2 m/s 757 mmHg 74%
    18:00 +25°C° 0 mm 2 m/s 757 mmHg 81%
    19:00 +25°C° 0 mm 2 m/s 757 mmHg 80%
    20:00 +25°C° 0 mm 2 m/s 757 mmHg 79%
    21:00 +25°C° 0 mm 2 m/s 757 mmHg 77%
    22:00 +25°C° 0 mm 2 m/s 756 mmHg 76%
    23:00 +24°C° 0 mm 2 m/s 756 mmHg 75%

    Depois de amanhã, 24 Setembro, Segunda-feira

    Tempo Temperatura Precipitação Vento Pressão Humidade
    00:00 +24°C° 0 mm 3 m/s 755 mmHg 73%
    01:00 +24°C° 0 mm 3 m/s 755 mmHg 73%
    02:00 +24°C° 0 mm 3 m/s 755 mmHg 72%
    03:00 +24°C° 0 mm 3 m/s 755 mmHg 71%
    04:00 +24°C° 0 mm 3 m/s 755 mmHg 71%
    05:00 +24°C° 0 mm 3 m/s 755 mmHg 70%
    06:00 +24°C° 0 mm 3 m/s 755 mmHg 70%
    07:00 +26°C° 0 mm 3 m/s 755 mmHg 63%
    08:00 +28°C° 0 mm 3 m/s 755 mmHg 57%
    09:00 +30°C° 0 mm 3 m/s 756 mmHg 50%
    10:00 +31°C° 0 mm 3 m/s 756 mmHg 51%
    11:00 +32°C° 0 mm 4 m/s 756 mmHg 53%
    12:00 +32°C° 0 mm 4 m/s 756 mmHg 54%
    13:00 +30°C° 0 mm 4 m/s 756 mmHg 57%
    14:00 +29°C° 0 mm 4 m/s 756 mmHg 60%
    15:00 +28°C° 0 mm 4 m/s 756 mmHg 63%
    16:00 +27°C° 0.2 mm 4 m/s 756 mmHg 63%
    17:00 +26°C° 0.2 mm 4 m/s 757 mmHg 64%
    18:00 +25°C° 0.2 mm 3 m/s 757 mmHg 64%
    19:00 +23°C° 0.1 mm 4 m/s 758 mmHg 67%
    20:00 +23°C° 0.1 mm 5 m/s 759 mmHg 70%
    21:00 +22°C° 0.1 mm 5 m/s 760 mmHg 73%
    22:00 +21°C° 0 mm 6 m/s 760 mmHg 75%
    23:00 +21°C° 0 mm 7 m/s 761 mmHg 76%

    25 Setembro, Terça-feira

    Tempo Temperatura Precipitação Vento Pressão Humidade
    00:00 +20°C° 0 mm 8 m/s 761 mmHg 77%
    01:00 +20°C° 0 mm 8 m/s 762 mmHg 76%
    02:00 +18°C° 0 mm 8 m/s 762 mmHg 74%
    03:00 +18°C° 0 mm 8 m/s 762 mmHg 73%
    04:00 +18°C° 0 mm 8 m/s 763 mmHg 71%
    05:00 +18°C° 0 mm 8 m/s 763 mmHg 70%
    06:00 +17°C° 0 mm 8 m/s 764 mmHg 68%
    07:00 +20°C° 0 mm 8 m/s 764 mmHg 63%
    08:00 +21°C° 0 mm 8 m/s 765 mmHg 58%
    09:00 +22°C° 0 mm 8 m/s 765 mmHg 54%
    10:00 +23°C° 0 mm 8 m/s 765 mmHg 49%
    11:00 +24°C° 0 mm 8 m/s 765 mmHg 45%
    12:00 +26°C° 0 mm 8 m/s 765 mmHg 41%
    13:00 +26°C° 0 mm 8 m/s 765 mmHg 42%
    14:00 +26°C° 0 mm 8 m/s 765 mmHg 42%
    15:00 +24°C° 0 mm 7 m/s 765 mmHg 43%
    16:00 +22°C° 0 mm 7 m/s 765 mmHg 47%
    17:00 +21°C° 0 mm 7 m/s 766 mmHg 52%
    18:00 +18°C° 0 mm 7 m/s 766 mmHg 57%
    19:00 +17°C° 0 mm 7 m/s 766 mmHg 55%
    20:00 +17°C° 0 mm 7 m/s 767 mmHg 54%
    21:00 +16°C° 0 mm 7 m/s 767 mmHg 53%
    22:00 +16°C° 0 mm 7 m/s 768 mmHg 54%
    23:00 +16°C° 0 mm 7 m/s 768 mmHg 55%

    26 Setembro, Quarta-feira

    Tempo Temperatura Precipitação Vento Pressão Humidade
    00:00 +15°C° 0 mm 7 m/s 768 mmHg 57%
    01:00 +15°C° 0 mm 7 m/s 768 mmHg 57%
    02:00 +15°C° 0 mm 7 m/s 768 mmHg 58%
    03:00 +15°C° 0 mm 7 m/s 768 mmHg 59%
    04:00 +15°C° 0 mm 7 m/s 768 mmHg 57%
    05:00 +15°C° 0 mm 7 m/s 768 mmHg 56%
    06:00 +15°C° 0 mm 7 m/s 768 mmHg 54%
    07:00 +19°C° 0 mm 6 m/s 768 mmHg 47%
    08:00 +22°C° 0 mm 6 m/s 768 mmHg 40%
    09:00 +26°C° 0 mm 6 m/s 768 mmHg 32%
    10:00 +27°C° 0 mm 6 m/s 768 mmHg 31%
    11:00 +28°C° 0 mm 6 m/s 768 mmHg 29%
    12:00 +29°C° 0 mm 6 m/s 768 mmHg 28%
    13:00 +29°C° 0 mm 5 m/s 767 mmHg 30%
    14:00 +28°C° 0 mm 5 m/s 767 mmHg 32%
    15:00 +28°C° 0 mm 5 m/s 767 mmHg 34%
    16:00 +25°C° 0 mm 4 m/s 767 mmHg 43%
    17:00 +22°C° 0 mm 4 m/s 767 mmHg 52%
    18:00 +19°C° 0 mm 3 m/s 767 mmHg 61%
    19:00 +19°C° 0 mm 3 m/s 767 mmHg 60%
    20:00 +19°C° 0 mm 3 m/s 767 mmHg 60%
    21:00 +19°C° 0 mm 3 m/s 768 mmHg 59%
    22:00 +19°C° 0 mm 2 m/s 767 mmHg 58%
    23:00 +19°C° 0 mm 2 m/s 767 mmHg 57%

    27 Setembro, Quinta-feira

    Tempo Temperatura Precipitação Vento Pressão Humidade
    00:00 +19°C° 0 mm 2 m/s 767 mmHg 57%
    01:00 +19°C° 0 mm 2 m/s 767 mmHg 56%
    02:00 +19°C° 0 mm 2 m/s 766 mmHg 56%
    03:00 +18°C° 0 mm 2 m/s 766 mmHg 55%
    04:00 +19°C° 0 mm 2 m/s 766 mmHg 54%
    05:00 +19°C° 0 mm 2 m/s 766 mmHg 53%
    06:00 +19°C° 0 mm 2 m/s 766 mmHg 53%
    07:00 +23°C° 0 mm 1 m/s 765 mmHg 47%
    08:00 +25°C° 0 mm 1 m/s 765 mmHg 41%
    09:00 +28°C° 0 mm 1 m/s 765 mmHg 35%
    10:00 +29°C° 0 mm 1 m/s 764 mmHg 34%
    11:00 +30°C° 0 mm 2 m/s 764 mmHg 33%
    12:00 +31°C° 0 mm 2 m/s 763 mmHg 33%
    13:00 +30°C° 0 mm 2 m/s 763 mmHg 35%
    14:00 +30°C° 0 mm 3 m/s 762 mmHg 36%
    15:00 +30°C° 0 mm 3 m/s 761 mmHg 38%
    16:00 +27°C° 0 mm 3 m/s 761 mmHg 47%
    17:00 +25°C° 0 mm 3 m/s 761 mmHg 55%
    18:00 +21°C° 0 mm 3 m/s 761 mmHg 63%
    19:00 +21°C° 0 mm 3 m/s 761 mmHg 62%
    20:00 +21°C° 0 mm 3 m/s 761 mmHg 60%
    21:00 +21°C° 0 mm 3 m/s 760 mmHg 58%
    22:00 +21°C° 0 mm 3 m/s 760 mmHg 57%
    23:00 +21°C° 0 mm 2 m/s 760 mmHg 57%
    Mostrar mais